Location: Shenandoah County Park
(38.9356°N, 78.4524°W)
Time: 15:22:19
(UTC-05:00)

Vanguard 2 Rocket - Pass Details

Date: 07 December 2023
Orbit: 555 x 3309 km, 32.9° (Epoch: 03 March)

Event Time Altitude Azimuth Distance (km) Brightness Sun altitude
Rises 16:55:19 0° 268° (W) 6,705 12.7 -1.5°
Reaches altitude 10° 16:59:25 10° 267° (W) 5,909 12.4 -2.2°
Maximum altitude 17:19:02 71° 189° (S) 3,402 9.9 -5.6°
Drops below altitude 10° 17:36:46 10° 109° (ESE) 5,418 10.4 -8.8°
Sets 17:40:21 0° 108° (ESE) 6,148 10.7 -9.4°
